www.pogodaiklimat.ru

Погода и климат >> Архив погоды >> Беларусь >> Минск


АРХИВ ПОГОДЫ в Минске

Время (UTC), дата Ветер
(напр.,м/с)
 
Видим.   Явления Облачность Т
(С)
Тd
(С)
f
(%)
Тe
(С)
Тes
(С)
Комфортность P
(гПа)
Po
(гПа)
Тmin
(С)
Tmax
(С)
R
(мм)
R24
(мм)
S
(см)
06 17.05 С 1 22 км ясно +10.8 +0.1 48 +11 +18 по сезону 1031.3 1003.8 +3.4
09 17.05 СЗ 2 17 км ясно +13.1 -1.1 37 +13 +27 опасность
простуды
1029.7 1002.4
12 17.05 С 1 21 км 8/0
[Ci]
+16.5 +0.5 34 +17 +30 опасность
простуды
1027.3 1000.5
15 17.05 СЗ 1 19 км 8/0
[Ci]
+17.0 -2.6 26 +18 +22 тепло 1025.3 998.6
18 17.05 штиль 0 18 км 8/0
[Ac trans Ci]
+14.5 -1.3 34 +15 +15 по сезону 1024.8 997.8 +17.6
21 17.05 штиль 0 14 км ясно +9.8 +2.7 61 +9 +9 прохладно 1025.1 997.6
00 18.05 штиль 0 14 км 5/0
[Ci]
+6.9 +2.6 74 +6 +6 прохладно 1024.6 996.8
03 18.05 штиль 0 15 км 9/0
[Ac und Ci]
+7.0 +3.3 77 +6 +6 прохладно 1023.8 996.1
06 18.05 штиль 0 15 км 10/10
[Sc diur, vesp]
+12.8 +2.4 49 +13 +13 по сезону 1023.2 996.1 +6.6
09 18.05 штиль 0 18 км {ливн. осадки} 9/4 800 м
[Sc diur, vesp As trans]
+15.5 -0.3 34 +16 +21 по сезону 1022.6 995.8
12 18.05 С 1 14 км {ливн. осадки} 8/4 800 м
[Sc Ac trans]
+18.3 +2.1 34 +20 +25 тепло 1021.4 994.9
15 18.05 штиль 0 17 км 8/0
[Ac trans Ci fib]
+18.6 +4.4 39 +19 +23 тепло 1020.1 993.7
18 18.05 штиль 0 16 км 4/0
[Ci fib]
+16.5 +5.3 47 +16 +16 тепло 1019.8 993.2 +20.2
21 18.05 штиль 0 15 км ясно +11.6 +6.6 71 +11 +11 по сезону 1020.6 993.4
00 19.05 штиль 0 14 км ясно +9.3 +6.2 81 +9 +9 по сезону 1020.5 993.1
03 19.05 штиль 0 14 км 8/0
[Cc]
+8.0 +6.2 88 +7 +8 прохладно 1020.6 993.1
06 19.05 штиль 0 13 км 8/0
[Ci fib]
+17.6 +6.9 49 +18 +25 тепло 1019.7 993.2 +7.8
09 19.05 В 1 15 км 8/0
[Ci fib]
+20.7 +4.8 35 +22 +37 комфорт 1018.9 992.7
12 19.05 ЮВ 1 14 км 9/0
[Ci fib]
+22.3 +4.0 30 +22 +35 комфорт 1017.4 991.4
15 19.05 В 1 19 км 8/0
[Ci fib]
+22.5 +4.9 32 +23 +27 комфорт 1016.1 990.2
18 19.05 штиль 0 18 км 8/0
[Ci fib]
+19.7 +5.9 40 +20 +20 тепло 1015.9 989.7 +24.5
21 19.05 штиль 0 12 км 5/0
[Ci fib]
+14.1 +8.2 68 +14 +14 тепло 1016.4 989.6
00 20.05 штиль 0 12 км 5/0
[Ci fib]
+11.1 +7.4 78 +11 +11 по сезону 1016.2 989.1
03 20.05 штиль 0 14 км 3/0
[Cc]
+10.4 +7.6 83 +10 +10 по сезону 1015.9 988.7
06 20.05 штиль 0 15 км 4/0
[Ci sp]
+19.8 +9.1 50 +21 +29 комфорт 1015.0 988.8 +9.8
09 20.05 С 1 23 км 8/0
[Ac trans Ci fib]
+22.4 +7.3 38 +23 +35 комфорт 1014.3 988.4
12 20.05 СЗ 1 19 км 9/4 500 м
[Cu hum Ac trans Ci fib]
+23.4 +6.1 33 +24 +29 комфорт 1013.2 987.4
15 20.05 С 1 19 км 8/3 1000 м
[Sc Ac trans Ci fib]
+25.4 +8.5 34 +26 +28 жарко 1012.1 986.6
18 20.05 ЮВ 1 18 км 9/0
[Ac trans Ci fib]
+21.5 +9.1 45 +23 +23 комфорт 1012.3 986.4 +25.6
21 20.05 ЮВ 1 15 км ясно +17.7 +9.6 59 +19 +19 тепло 1012.5 986.2
00 21.05 СЗ 1 15 км 8/0
[Ac trans Ci fib]
+17.1 +11.0 67 +18 +18 тепло 1012.2 985.8
03 21.05 СЗ 1 16 км в посл. час ливневой дождь 9/4 1000 м
[Sc Ac trans Ci fib]
+16.5 +12.1 75 +17 +17 тепло 1011.4 985.0
06 21.05 С 2 13 км в посл. час ливневой дождь 8/0
[Ac trans]
+17.8 +13.0 73 +18 +22 тепло 1011.4 985.1 +15.9
09 21.05 С 3 18 км 8/0
[Ac trans]
+21.1 +9.9 49 +23 +29 комфорт 1011.6 985.6
12 21.05 С 3 21 км 5/0
[Ci fib]
+21.3 +5.3 35 +22 +32 комфорт 1012.0 986.0
15 21.05 С 3
{10}
17 км ясно +20.3 +3.6 33 +21 +25 комфорт 1012.1 986.0
18 21.05 С 3 18 км 3/0
[Ci fib]
+17.3 +3.7 40 +17 +17 тепло 1013.8 987.4 +23.3
21 21.05 штиль 0 18 км ясно +12.9 +4.3 56 +13 +13 по сезону 1015.8 988.9
00 22.05 штиль 0 18 км ясно +10.4 +4.3 66 +10 +10 по сезону 1016.7 989.5
03 22.05 штиль 0 17 км 4/0
[Ci fib]
+8.3 +4.9 79 +8 +8 прохладно 1017.4 990.0
06 22.05 штиль 0 18 км ясно +15.6 +1.9 40 +16 +25 тепло 1017.2 990.5 +8.0
09 22.05 С 1 19 км 5/0
[Ac trans Ci fib]
+18.2 -0.3 29 +19 +32 опасность
простуды
1016.7 990.3
12 22.05 СЗ 1 18 км 9/8 450 м
[Sc Ac trans]
+19.2 +4.2 37 +21 +23 комфорт 1015.8 989.5
15 22.05 З 1 17 км {морось} 9/8 1200 м
[Sc Ac trans]
+18.0 +7.9 52 +19 +20 тепло 1015.3 988.9
18 22.05 СЗ 1 19 км {морось} 8/0
[Cc]
+17.4 +9.2 59 +18 +18 тепло 1014.7 988.3 +21.0
21 22.05 штиль 0 16 км ясно +14.0 +9.7 75 +14 +14 по сезону 1015.1 988.3
00 23.05 штиль 0 15 км ясно +11.9 +9.7 86 +11 +11 по сезону 1014.9 987.9
03 23.05 штиль 0 18 км 8/0
[Ac trans]
+11.4 +6.5 72 +11 +11 по сезону 1015.2 988.2
06 23.05 СЗ 1 18 км 5/0
[Ci fib]
+14.9 +6.5 57 +16 +23 тепло 1014.9 988.2 +11.2
09 23.05 З 2 17 км 3/1 1000 м
[Cu hum Ci fib]
+18.5 +4.8 40 +19 +32 опасность
простуды
1014.2 987.9
12 23.05 З 3 17 км ясно +20.6 +2.2 30 +21 +33 комфорт 1013.2 987.1
15 23.05 З 3 18 км ясно +21.3 +1.3 27 +21 +25 комфорт 1012.1 986.1
18 23.05 З 1 17 км 3/0
[Ac trans]
+18.0 +2.3 35 +19 +19 тепло 1012.6 986.3 +22.2
21 23.05 штиль 0 17 км 3/0
[Ci fib]
+12.8 +4.7 58 +13 +13 по сезону 1013.2 986.3
00 24.05 штиль 0 13 км 5/0
[Ac trans]
+11.5 +5.9 68 +11 +11 по сезону 1012.7 985.7
03 24.05 СЗ 1 15 км 8/0
[Ac trans Ci fib]
+11.7 +6.3 69 +12 +12 по сезону 1012.4 985.5

 

Местоположение метеостанции Минск (город Минск, Беларусь): широта 53.93 долгота 27.63 высота над уровнем моря 231 м.

В архиве по умолчанию представлена погода в Минске за последнюю неделю. Архивные данные за месяц целиком и за предыдущие месяцы, начиная с января 2011 года, Вы можете получить, выбрав интересующий диапазон дат из раскрывающегося списка и нажав кнопку "Ввод!".

Внимание! Время в таблицах - всемирное. Для получения местного времени необходимо прибавить поправку, которая в Минске равна 3 ч.

Смотрите также архив погоды в соседних городах и на ближайших метеорологических станциях:

Погода в Марьиной Горке (Минская область, Беларусь) (63 км)
Погода в Борисове (Минская область, Беларусь) (68 км)
Погода в Воложине (Минская область, Беларусь) (75 км)
Погода в Вилейке (Минская область, Беларусь) (77 км)
Погода в Столбцах (Минская область, Беларусь) (78 км)
Погода в Березино (Минская область, Беларусь) (90 км)
Погода в Барановичах (Брестская область, Беларусь) (92 км)
Погода в Слуцке (Минская область, Беларусь) (100 км)
Погода в Докшицах (Витебская область, Беларусь) (106 км)
Погода в Кличеве (Могилевская область, Беларусь) (121 км)

Пояснения к столбцам:

Ветер - указаны скорость ветра в м/с - средняя за 10 мин, порывы в срок и между сроками (в фигурных скобках) и направление, откуда дует ветер: С - северный, СВ - северо-восточный, В - восточный, ЮВ - юго-восточный, Ю - южный, ЮЗ - юго-западный, З - западный, СЗ - северо-западный.
Видимость - горизонтальная дальность видимости в метрах или километрах. При видимости от 1 до 10 км при отсутствии осадков обычно наблюдается дымка, при ухудшении видимости до 1 км и менее - туман. В сухую погоду видимость может ухудшаться дымом, пылью или мглою.
Явления - указаны атмосферные явления, наблюдавшиеся в срок или в последний час перед сроком; фигурными скобками обозначены явления, наблюдавшиеся между сроками (за 1-3 часа до срока); квадратными скобками обозначены град или гололедные отложения с указанием их диаметра в мм.
Облачность - указаны через наклонную черту общая и нижняя облачность в баллах и высота нижней границы облаков в метрах; квадратными скобками обозначены формы облаков: Ci - перистые, Cs - перисто-слоистые, Cc - перисто-кучевые, Ac - высококучевые, As - высокослоистые, Sc - слоисто-кучевые, Ns - слоисто-дождевые, Cu - кучевые, Cb - кучево-дождевые. Подробнее классификацию облаков см. в Атласе облаков (PDF).
T - Температура воздуха - температура, измеренная на высоте 2 м над землей.
Td - Температура точки росы - температура, при понижении до которой содержащийся в воздухе водяной пар достигнет насыщения.
f - Относительная влажность воздуха - влажноcть воздуха, измеренная на высоте 2 м над землей.
Te - Эффективная температура - температура, которую ощущает одетый по сезону человек в тени. Характеристика душности погоды. При расчете учитывается влияние влажности воздуха и скорости ветра на теплоощущения человека.
Tes - Эффективная температура на солнце - температура, которую ощущает человек, с поправкой на солнечный нагрев. Характеристика знойности погоды. Зависит от высоты солнца над горизонтом, облачности и скорости ветра. Ночью, в пасмурную погоду, а также при ветре 12 м/с и более поправка равна нулю.
P - Атмосферное давление - приведенное к уровню моря атмосферное давление.
Po - Атмосферное давление - измеренное на уровне метеостанции атмосферное давление.
Tmin - Минимальная температура - минимум температуры воздуха на высоте 2 м над землей.
Tmax - Максимальная температура - максимум температуры воздуха на высоте 2 м над землей.
R - Количество осадков - Количество выпавших осадков за период времени, мм. При наведении курсора мыши на число - период времени, за который выпало указанное количество осадков.
R24 - Количество осадков - Количество выпавших осадков за 24 часа, мм.
S - Снежный покров - Высота снежного покрова, см. При наведении курсора мыши на число - состояние снежного покрова и степень покрытия местности в баллах.